Weerstation Grootegast  Weerstation Grootegast


15 daagse weersverwachting Innsbruck (AT)

  • Overzicht
  • Per uur
  • 15 dagen
  • Extra
  • Vergelijk
  • Kaarten
  • Dagkaart
  • Meer »
  • Info
  • Statistieken
  • Directe link
    Temp 6h Neerslag Wind  
 07:48     18:09    Daglengte: 10:21 Vandaag
20:00
0.7 mm
1
 07:50     18:08    Daglengte: 10:18 Morgen
02:00
 
1
07:00
 
1
13:00
16°
 
1
19:00
10°
 
2
 07:51     18:06    Daglengte: 10:15 Maandag 26 Okt
01:00
 
2
07:00
 
2
13:00
10°
2.0 mm
2
19:00
28.5 mm
1
 07:53     18:04    Daglengte: 10:11 Dinsdag 27 Okt
01:00
53.7 mm
1
07:00
66.3 mm
1
13:00
120.6 mm
1
Locatie info
Region: Tirol
Latitude: 47.2680°N
Longitude: 11.3913°E
587 masl
Postcode: 6020
Temp/Neerslag /Baro Onweer/DauwpuntSneeuw
    Temp Baro 1h Neerslag Dauwpunt Wind UV BewolkingSneeuw  
 07:48     18:09    Daglengte: 10:21 Vandaag
17:00
10°
1019.6 hPa 0.7 mm
48%
9.6°
1
Windvlaag: 0.3 m/s
62%1 cm
18:00
10°
Voelt als: 9.6°
1019.3 hPa
29%
9.0°
1
Windvlaag: -0.3 m/s
38%1 cm
19:00
1019.6 hPa
15%
8.2°
1
Windvlaag: -0.5 m/s
33%1 cm
20:00
1019.8 hPa
14%
7.3°
1
Windvlaag: -0.4 m/s
14%1 cm
21:00
Voelt als: 7.3°
1019.7 hPa
14%
6.7°
1
Windvlaag: -0.7 m/s
8%1 cm
22:00
Voelt als: 6.7°
1019.8 hPa
14%
6.2°
1
Windvlaag: -0.6 m/s
14%1 cm
23:00
Voelt als: 5.5°
1019.7 hPa
14%
5.4°
1
Windvlaag: -0.6 m/s
24%1 cm
 07:50     18:08    Daglengte: 10:18 Morgen
00:00
Voelt als: 5.1°
1019.7 hPa
15%
4.9°
1
Windvlaag: -0.7 m/s
16%1 cm
01:00
Voelt als: 4.8°
1019.2 hPa
14%
4.4°
1
Windvlaag: -0.3 m/s
16%1 cm
02:00
Voelt als: 4.2°
1018.8 hPa
14%
3.9°
1
Windvlaag: -0.2 m/s
16%1 cm
02:00
Voelt als: 4.1°
1018.0 hPa
14%
3.6°
1
Windvlaag: -0.6 m/s
11%1 cm
03:00
Voelt als: 4.3°
1017.2 hPa
14%
3.3°
1
Windvlaag: -0.6 m/s
12%1 cm
04:00
Voelt als: 4.4°
1016.7 hPa
14%
3.1°
1
Windvlaag: -0 m/s
25%1 cm
05:00
Voelt als: 4.5°
1016.7 hPa
14%
3.0°
1
Windvlaag: 0 m/s
21%1 cm
06:00
Voelt als: 3.8°
1017.0 hPa
14%
2.4°
1
Windvlaag: -0 m/s
16%1 cm
07:00
Voelt als: 3.9°
1016.7 hPa
14%
2.0°
1
Windvlaag: -0 m/s
7%1 cm
08:00
1016.3 hPa
14%
3.6°
1
Windvlaag: -0.2 m/s
3%1 cm
09:00
1015.9 hPa
14%
6.0°
1
Windvlaag: -0.1 m/s
11%1 cm
10:00
11°
1014.7 hPa
14%
7.7°
1
Windvlaag: 0.4 m/s
17%1 cm
11:00
13°
1013.6 hPa
14%
8.2°
1
Windvlaag: 0.1 m/s
12%1 cm
12:00
15°
1012.3 hPa
14%
7.5°
1
Windvlaag: 0.2 m/s
11%1 cm
13:00
16°
1010.9 hPa
14%
6.3°
1
Windvlaag: 0.3 m/s
14%1 cm
14:00
16°
1009.9 hPa
14%
6.0°
2
Windvlaag: 1.7 m/s
15%1 cm
15:00
16°
1009.3 hPa
14%
6.1°
2
Windvlaag: 1.7 m/s
10%1 cm
16:00
14°
1009.0 hPa
14%
7.2°
1
Windvlaag: 1.6 m/s
39%1 cm
17:00
12°
1009.0 hPa
14%
5.5°
2
Windvlaag: 1.8 m/s
33%1 cm
18:00
11°
1009.6 hPa
14%
5.6°
2
Windvlaag: 1.8 m/s
40%1 cm
19:00
10°
1009.9 hPa
14%
5.7°
2
Windvlaag: 1.6 m/s
22%1 cm
20:00
10°
Voelt als: 9.7°
1009.9 hPa
14%
6.0°
1
Windvlaag: 1.6 m/s
31%1 cm
21:00
10°
Voelt als: 9.3°
1009.7 hPa
14%
6.1°
1
Windvlaag: 1.6 m/s
30%1 cm
22:00
10°
Voelt als: 9.4°
1009.6 hPa
14%
6.3°
1
Windvlaag: 1.6 m/s
19%1 cm
23:00
Voelt als: 8.9°
1009.3 hPa
14%
6.1°
1
Windvlaag: 1.4 m/s
28%1 cm
 07:51     18:06    Daglengte: 10:15 Maandag 26 Okt
00:00
Voelt als: 8.7°
1008.6 hPa
14%
6.0°
2
Windvlaag: 1.4 m/s
34%1 cm
01:00
Voelt als: 8.7°
1007.9 hPa
14%
6.1°
2
Windvlaag: 1.9 m/s
57%1 cm
02:00
Voelt als: 8.5°
1007.2 hPa
19%
6.2°
2
Windvlaag: 2.7 m/s
74%1 cm
03:00
Voelt als: 8.6°
1006.3 hPa
30%
6.3°
2
Windvlaag: 2.7 m/s
83%1 cm
04:00
Voelt als: 8.7°
1005.8 hPa
34%
6.3°
2
Windvlaag: 2.3 m/s
81%1 cm
05:00
10°
Voelt als: 9.0°
1005.3 hPa
20%
6.4°
2
Windvlaag: 2.6 m/s
70%1 cm
06:00
10°
Voelt als: 9.1°
1004.8 hPa
19%
6.3°
2
Windvlaag: 2.8 m/s
63%1 cm
07:00
Voelt als: 8.0°
1004.5 hPa
23%
6.0°
2
Windvlaag: 2.6 m/s
64%1 cm
08:00
10°
1005.1 hPa
25%
7.1°
2
Windvlaag: 2.6 m/s
57%1 cm
09:00
11°
1004.8 hPa
25%
7.7°
2
Windvlaag: 2.5 m/s
57%1 cm
10:00
11°
1004.4 hPa
40%
7.8°
1
Windvlaag: 2.2 m/s
79%1 cm
11:00
12°
1003.8 hPa
86%
8.2°
1
Windvlaag: 2.7 m/s
84%1 cm
12:00
12°
1003.4 hPa
95%
7.8°
2
Windvlaag: 3.6 m/s
94%1 cm
13:00
10°
1004.0 hPa 2.0 mm
100%
7.7°
2
Windvlaag: 2.9 m/s
98%2 cm
14:00
Voelt als: 8.1°
1005.2 hPa 3.0 mm
100%
8.3°
2
Windvlaag: 3 m/s
100%5 cm
15:00
Voelt als: 6.1°
1006.3 hPa 3.1 mm
100%
7.2°
2
Windvlaag: -0.4 m/s
100%7 cm
16:00
Voelt als: 5.0°
1007.3 hPa 4.1 mm
100%
6.2°
2
Windvlaag: -1.1 m/s
100%11 cm
17:00
Voelt als: 4.3°
1008.2 hPa 5.0 mm
100%
5.3°
2
Windvlaag: -1 m/s
100%14 cm
18:00
Voelt als: 4.6°
1008.6 hPa 6.1 mm
100%
4.7°
1
Windvlaag: -1.2 m/s
100%19 cm
19:00
1009.2 hPa 7.4 mm
100%
4.4°
1
Windvlaag: -1.2 m/s
100%22 cm
20:00
1009.6 hPa 8.5 mm
100%
4.3°
1
Windvlaag: -0.2 m/s
100%25 cm
21:00
1009.9 hPa 8.4 mm
100%
4.0°
1
Windvlaag: -1.5 m/s
100%25 cm
22:00
Voelt als: 3.7°
1010.6 hPa 8.6 mm
100%
3.5°
1
Windvlaag: -1.7 m/s
100%27 cm
23:00
Voelt als: 3.5°
1010.7 hPa 9.2 mm
100%
3.3°
1
Windvlaag: -1.1 m/s
99%29 cm
 07:53     18:04    Daglengte: 10:11 Dinsdag 27 Okt
00:00
Voelt als: 3.2°
1011.0 hPa 9.1 mm
100%
3.0°
1
Windvlaag: -0.7 m/s
100%30 cm
01:00
Voelt als: 3.1°
1011.4 hPa 9.8 mm
100%
2.9°
1
Windvlaag: -0.3 m/s
100%31 cm
02:00
Voelt als: 3.0°
1011.3 hPa 9.9 mm
100%
2.7°
1
Windvlaag: -0.5 m/s
100%32 cm
03:00
Voelt als: 2.9°
1011.0 hPa 10.1 mm
100%
2.7°
1
Windvlaag: -0 m/s
100%33 cm
04:00
1011.0 hPa 10.0 mm
100%
2.6°
1
Windvlaag: -0.3 m/s
93%33 cm
05:00
Voelt als: 2.7°
1011.1 hPa 10.2 mm
100%
2.4°
1
Windvlaag: -0.3 m/s
96%33 cm
06:00
Voelt als: 2.1°
1011.2 hPa 13.3 mm
100%
2.3°
1
Windvlaag: -1.3 m/s
97%34 cm
07:00
Voelt als: 2.5°
1011.8 hPa 12.8 mm
100%
2.3°
1
Windvlaag: -1.4 m/s
97%34 cm
08:00
Voelt als: 3.4°
1012.2 hPa 20.4 mm
100%
2.6°
1
Windvlaag: 6.9 m/s
98%34 cm
09:00
Voelt als: 3.6°
1012.5 hPa 20.4 mm
100%
2.5°
1
Windvlaag: 5.3 m/s
89%33 cm
10:00
Voelt als: 4.2°
1012.9 hPa 20.1 mm
100%
2.4°
1
Windvlaag: 6.8 m/s
92%32 cm
11:00
Voelt als: 4.5°
1013.1 hPa 19.9 mm
100%
2.3°
1
Windvlaag: 6.7 m/s
85%31 cm
12:00
Voelt als: 4.9°
1013.5 hPa 19.9 mm
100%
2.2°
1
Windvlaag: 6 m/s
80%30 cm
13:00
Voelt als: 5.3°
1013.7 hPa 19.8 mm
100%
2.1°
1
Windvlaag: 0.4 m/s
76%29 cm
14:00
1013.4 hPa 58.2 mm
100%
2.6°
1
Windvlaag: 3.7 m/s
58%28 cm
15:00
1013.7 hPa 58.2 mm
100%
2.5°
1
Windvlaag: 2.8 m/s
53%27 cm
Temp/Neerslag /Baro Onweer/DauwpuntSneeuw
    Temp Baro Neerslag Dauwpunt Wind BewolkingSneeuw  
 07:48     18:09    Daglengte: 10:21 Vandaag
17:00
10°
1019.6 hPa 0.7 mm 9.6°
1
62%1 cm
20:00
1019.8 hPa   7.3°
1
14%1 cm
23:00
Voelt als: 5.5°
1019.7 hPa   5.4°
1
24%1 cm
 07:50     18:08    Daglengte: 10:18 Morgen
02:00
Voelt als: 4.2°
1018.8 hPa   3.9°
1
16%1 cm
04:00
Voelt als: 4.4°
1016.7 hPa   3.1°
1
25%1 cm
07:00
Voelt als: 3.9°
1016.7 hPa   2.0°
1
7%1 cm
10:00
11°
1014.7 hPa   7.7°
1
17%1 cm
13:00
16°
1010.9 hPa   6.3°
1
14%1 cm
16:00
14°
1009.0 hPa   7.2°
1
39%1 cm
19:00
10°
1009.9 hPa   5.7°
2
22%1 cm
22:00
10°
Voelt als: 9.4°
1009.6 hPa   6.3°
1
19%1 cm
 07:51     18:06    Daglengte: 10:15 Maandag 26 Okt
01:00
Voelt als: 8.7°
1007.9 hPa   6.1°
2
57%1 cm
04:00
Voelt als: 8.7°
1005.8 hPa   6.3°
2
81%1 cm
07:00
Voelt als: 8.0°
1004.5 hPa   6.0°
2
64%1 cm
10:00
11°
1004.4 hPa   7.8°
1
79%1 cm
13:00
10°
1004.0 hPa 2.0 mm 7.7°
2
98%2 cm
16:00
Voelt als: 5.0°
1007.3 hPa 10.1 mm 6.2°
2
100%11 cm
19:00
1009.2 hPa 18.4 mm 4.4°
1
100%22 cm
22:00
Voelt als: 3.7°
1010.6 hPa 25.5 mm 3.5°
1
100%27 cm
 07:53     18:04    Daglengte: 10:11 Dinsdag 27 Okt
01:00
Voelt als: 3.1°
1011.4 hPa 28.2 mm 2.9°
1
100%31 cm
04:00
1011.0 hPa 30.1 mm 2.6°
1
93%33 cm
07:00
Voelt als: 2.5°
1011.8 hPa 36.2 mm 2.3°
1
97%34 cm
10:00
Voelt als: 4.2°
1012.9 hPa 60.9 mm 2.4°
1
92%32 cm
13:00
Voelt als: 5.3°
1013.7 hPa 59.7 mm 2.1°
1
76%29 cm
16:00
Voelt als: 4.6°
1013.9 hPa 174.5 mm 1.9°
1
48%27 cm
19:00
Voelt als: 2.8°
1014.6 hPa 174.5 mm 0.0°
1
38%27 cm
22:00
1015.9 hPa 58.6 mm -1.5°
1
12% warningclass
 07:54     18:03    Daglengte: 10:09 Woensdag 28 Okt
01:00
-0°
Voelt als: -0.4°
1016.3 hPa 58.6 mm -2.7°
1
1% warningclass
04:00
-2°
Voelt als: -2.2°
1017.6 hPa 58.6 mm -4.1°
1
46% warningclass
07:00
-3°
Voelt als: -3.8°
1018.9 hPa 58.6 mm -5.5°
1
90% warningclass
10:00
1019.7 hPa 58.6 mm -1.6°
1
86%
13:00
1020.4 hPa 58.6 mm 1.4°
0
83%
16:00
1020.9 hPa 58.6 mm 2.3°
1
47%
19:00
Voelt als: 4.4°
1021.7 hPa 58.6 mm 2.3°
1
11%
22:00
Voelt als: 2.7°
1022.9 hPa 58.6 mm 1.1°
1
28%
 07:56     18:01    Daglengte: 10:05 Donderdag 29 Okt
01:00
Voelt als: 1.1°
1024.1 hPa 58.6 mm 0.1°
1
44%
04:00
Voelt als: 1.1°
1024.5 hPa 58.6 mm 0.1°
1
64%
07:00
Voelt als: 1.2°
1025.0 hPa 58.6 mm 0.2°
1
84%
10:00
Voelt als: 5.2°
1025.4 hPa 58.6 mm 2.5°
1
87%
13:00
Voelt als: 8.6°
1025.7 hPa 58.6 mm 4.5°
0
90%
16:00
Voelt als: 7.8°
1026.3 hPa 58.6 mm 4.8°
1
91%
19:00
Voelt als: 6.8°
1027.2 hPa 58.6 mm 4.8°
1
92%
22:00
Voelt als: 6.8°
1027.3 hPa 58.6 mm 4.7°
1
91%
 07:57     18:00    Daglengte: 10:03 Vrijdag 30 Okt
01:00
Voelt als: 6.8°
1027.4 hPa 58.6 mm 4.8°
1
91%
04:00
1026.4 hPa 58.6 mm 4.9°
1
91%
07:00
Voelt als: 7.2°
1025.4 hPa 58.6 mm 5.0°
1
91%
10:00
10°
1024.5 hPa 58.6 mm 6.5°
1
90%
13:00
13°
1023.6 hPa 58.6 mm 7.4°
1
89%
16:00
10°
1024.0 hPa 58.6 mm 5.5°
1
46%
19:00
1024.5 hPa 58.6 mm 3.3°
1
4%
22:00
Voelt als: 5.3°
1026.0 hPa 58.6 mm 1.9°
1
14%
 07:59     17:58    Daglengte: 9:59 Zaterdag 31 Okt
01:00
Voelt als: 3.7°
1027.3 hPa 58.6 mm 0.6°
1
24%
04:00
Voelt als: 2.6°
1027.7 hPa 58.6 mm -0.5°
1
29%
07:00
Voelt als: 1.4°
1028.1 hPa 58.6 mm -1.6°
1
33%
10:00
Voelt als: 8.1°
1026.7 hPa 58.6 mm 2.3°
1
21%
13:00
14°
1025.4 hPa 117.2 mm 5.3°
0
10%
19:00
Voelt als: 6.6°
1025.1 hPa 117.2 mm 3.7°
1
1%
 08:00     17:56    Daglengte: 9:56 Zondag 01 Nov
01:00
Voelt als: 2.6°
1026.3 hPa 117.2 mm -0.8°
1
35%
07:00
Voelt als: 0.5°
1027.0 hPa 117.2 mm -2.2°
1
11% warningclass
13:00
15°
1024.2 hPa 117.2 mm 4.3°
1
70%
19:00
Voelt als: 7.7°
1023.6 hPa 117.2 mm 4.1°
1
87%
 08:02     17:55    Daglengte: 9:53 Maandag 02 Nov
01:00
1024.2 hPa 117.2 mm -2.3°
1
4%
07:00
1025.6 hPa 117.2 mm -4.8°
1
3%
13:00
16°
1024.6 hPa 117.2 mm 4.4°
0
0%
19:00
Voelt als: 8.0°
1024.8 hPa 117.2 mm 5.6°
1
41%
 08:03     17:53    Daglengte: 9:50 Dinsdag 03 Nov
01:00
Voelt als: 7.9°
1025.8 hPa 0.1 mm 5.4°
2
53%
07:00
Voelt als: 7.8°
1025.4 hPa 0.3 mm 4.1°
1
37%
13:00
16°
1023.2 hPa 0.6 mm 9.3°
0
27%
19:00
1025.0 hPa 0.7 mm 7.5°
1
32%
 08:05     17:52    Daglengte: 9:47 Woensdag 04 Nov
01:00
1025.6 hPa 0.6 mm 6.1°
1
41%
07:00
1025.1 hPa 0.5 mm 5.3°
0
45%
13:00
13°
1023.3 hPa 1.5 mm 8.7°
1
53%
19:00
1024.4 hPa 1.4 mm 6.7°
1
64%
 08:06     17:51    Daglengte: 9:45 Donderdag 05 Nov
01:00
1024.7 hPa 0.7 mm 5.4°
0
70%
07:00
1024.3 hPa   4.3°
0
77%
13:00
10°
1022.5 hPa 0.9 mm 6.4°
1
83%
19:00
1024.2 hPa 1.1 mm 5.1°
1
76%
 08:08     17:49    Daglengte: 9:41 Vrijdag 06 Nov
01:00
Voelt als: 4.9°
1024.7 hPa 0.5 mm 3.2°
0
68%
07:00
1024.2 hPa 0.5 mm 2.1°
0
60%
13:00
10°
1021.8 hPa 0.7 mm 5.7°
1
56%
19:00
1023.9 hPa 0.8 mm 4.5°
0
60%
 08:09     17:48    Daglengte: 9:39 Zaterdag 07 Nov
01:00
1024.8 hPa 0.7 mm 3.3°
1
63%
07:00
Voelt als: 4.5°
1025.2 hPa 0.4 mm 2.2°
1
56%
13:00
11°
1022.7 hPa 0.3 mm 5.6°
1
47%
19:00
Voelt als: 5.9°
1024.7 hPa 0.5 mm 4.2°
0
56%
 08:11     17:46    Daglengte: 9:35 Zondag 08 Nov
01:00
1025.1 hPa 0.2 mm 2.8°
1
54%
07:00
Voelt als: 4.5°
1024.6 hPa 0.2 mm 1.9°
1
49%
13:00
11°
1021.5 hPa 0.3 mm 5.5°
1
57%
  CAPE Lifted Index Hail Supercell Tornado SRH 3km CL BTM PRES CL TOP PRES Swiss DWD icon SMHI TS
 07:48     18:09    Daglengte: 10:21 Vandaag
17:00 74 J/kg 0.6 K 0 % 0 % 0 % 0 m²/s² 0 0 1.95 3
18:00 70 J/kg 0.9 K 0 % 0 % 0 % 0 m²/s² 0 0 2.16 45
19:00 49 J/kg 0.9 K 0 % 0 % 0 % 0 m²/s² 0 0 1.41 45
20:00 35 J/kg 1.2 K 0 % 0 % 0 % 0 m²/s² 0 0 2.16 0
21:00 14 J/kg 1.8 K 0 % 0 % 0 % 0 m²/s² 0 0 3.27 1
22:00 9 J/kg 1.9 K 0 % 0 % 0 % 0 m²/s² 0 0 3.61 1
23:00 0 J/kg 2.1 K 0 % 0 % 0 % 0 m²/s² 0 0 4.2 1
 07:50     18:08    Daglengte: 10:18 Morgen
00:00 0 J/kg 2.4 K 0 % 0 % 0 % 0 m²/s² 0 0 4.92 1
01:00 0 J/kg 2.5 K 0 % 0 % 0 % 0 m²/s² 0 0 5.08 0
02:00 0 J/kg 2.5 K 0 % 0 % 0 % 0 m²/s² 0 0 5.92 0
02:00 0 J/kg 3.6 K 0 % 0 % 0 % 0 m²/s² 0 0 7.5 0
03:00 0 J/kg 5.0 K 0 % 0 % 0 % 0 m²/s² 0 0 9.56 0
04:00 0 J/kg 6.2 K 0 % 0 % 0 % 0 m²/s² 0 0 11.96 0
05:00 0 J/kg 7.3 K 0 % 0 % 0 % 0 m²/s² 0 0 14.17 0
06:00 0 J/kg 7.7 K 0 % 0 % 0 % 0 m²/s² 0 0 15.59 0
07:00 0 J/kg 7.6 K 0 % 0 % 0 % 0 m²/s² 0 0 15.52 0
08:00 0 J/kg 7.5 K 0 % 0 % 0 % 0 m²/s² 0 0 14.64 0
09:00 0 J/kg 7.4 K 0 % 0 % 0 % 0 m²/s² 0 0 14.12 1
10:00 0 J/kg 7.4 K 0 % 0 % 0 % 0 m²/s² 0 0 13.37 0
11:00 0 J/kg 7.2 K 0 % 0 % 0 % 0 m²/s² 0 0 12.03 1
12:00 0 J/kg 6.7 K 0 % 0 % 0 % 0 m²/s² 0 0 10.75 1
13:00 0 J/kg 5.7 K 0 % 0 % 0 % 0 m²/s² 0 0 9.45 1
14:00 0 J/kg 5.5 K 0 % 0 % 0 % 0 m²/s² 0 0 8.44 0
15:00 0 J/kg 5.5 K 0 % 0 % 0 % 0 m²/s² 0 0 8.35 0
16:00 0 J/kg 5.4 K 0 % 0 % 0 % 0 m²/s² 0 0 8.88 3
17:00 0 J/kg 5.1 K 0 % 0 % 0 % 0 m²/s² 0 0 8.85 3
18:00 0 J/kg 4.9 K 0 % 0 % 0 % 0 m²/s² 0 0 8.86 3
19:00 0 J/kg 4.5 K 0 % 0 % 0 % 0 m²/s² 0 0 8.37 2
20:00 0 J/kg 4.3 K 0 % 0 % 0 % 0 m²/s² 0 0 7.87 2
21:00 0 J/kg 4.3 K 0 % 0 % 0 % 0 m²/s² 0 0 7.66 2
22:00 0 J/kg 4.2 K 0 % 0 % 0 % 0 m²/s² 0 0 7.14 1
23:00 0 J/kg 3.8 K 0 % 0 % 0 % 0 m²/s² 0 0 6.2 3
 07:51     18:06    Daglengte: 10:15 Maandag 26 Okt
00:00 0 J/kg 3.7 K 0 % 0 % 0 % 0 m²/s² 0 0 5.89 3
01:00 0 J/kg 2.4 K 0 % 0 % 0 % 0 m²/s² 0 0 4.8 3
02:00 0 J/kg 1.2 K 0 % 0 % 0 % 0 m²/s² 0 0 4.41 3
03:00 0 J/kg 1.4 K 0 % 0 % 0 % 0 m²/s² 0 0 4.7 3
04:00 0 J/kg 1.9 K 0 % 0 % 0 % 0 m²/s² 0 0 5.11 3
05:00 0 J/kg 2.2 K 0 % 0 % 0 % 0 m²/s² 0 0 5.41 3
06:00 0 J/kg 1.8 K 0 % 0 % 0 % 0 m²/s² 0 0 4.44 3
07:00 0 J/kg 2.1 K 0 % 0 % 0 % 0 m²/s² 0 0 3.72 3
08:00 0 J/kg 2.3 K 0 % 0 % 0 % 0 m²/s² 0 0 2.81 3
09:00 2 J/kg 2.3 K 0 % 0 % 0 % 0 m²/s² 0 0 2.84 2
10:00 1 J/kg 1.6 K 0 % 0 % 0 % 0 m²/s² 0 0 1.9 2
11:00 0 J/kg 1.9 K 0 % 0 % 0 % 0 m²/s² 0 0 1.9 3
12:00 0 J/kg 2.5 K 0 % 0 % 0 % 0 m²/s² 0 0 2.5 2
13:00 0 J/kg 2.9 K 0 % 0 % 0 % 0 m²/s² 0 0 2.9 61
14:00 1 J/kg 3.1 K 0 % 0 % 0 % 0 m²/s² 0 0 3.1 61
15:00 1 J/kg 3.4 K 0 % 0 % 0 % 0 m²/s² 0 0 3.49 61
16:00 1 J/kg 3.3 K 0 % 0 % 0 % 0 m²/s² 0 0 3.39 61
17:00 1 J/kg 2.3 K 0 % 0 % 0 % 0 m²/s² 0 0 2.42 61
18:00 1 J/kg 1.9 K 0 % 0 % 0 % 0 m²/s² 0 0 2.08 61
19:00 0 J/kg 2.2 K 0 % 0 % 0 % 0 m²/s² 0 0 2.38 63
20:00 0 J/kg 1.7 K 0 % 0 % 0 % 0 m²/s² 0 0 1.91 63
21:00 0 J/kg 0.9 K 0 % 0 % 0 % 0 m²/s² 0 0 1.02 73
22:00 0 J/kg 3.3 K 0 % 0 % 0 % 0 m²/s² 0 0 3.51 73
23:00 0 J/kg 4.2 K 0 % 0 % 0 % 0 m²/s² 0 0 4.44 73
 07:53     18:04    Daglengte: 10:11 Dinsdag 27 Okt
00:00 0 J/kg 7.1 K 0 % 0 % 0 % 0 m²/s² 0 0 7.34 73
01:00 0 J/kg 5.4 K 0 % 0 % 0 % 0 m²/s² 0 0 5.7 73
02:00 0 J/kg 5.7 K 0 % 0 % 0 % 0 m²/s² 0 0 6.06 73
03:00 0 J/kg 5.2 K 0 % 0 % 0 % 0 m²/s² 0 0 5.59 73
04:00 0 J/kg 5.3 K 0 % 0 % 0 % 0 m²/s² 0 0 5.66 73
05:00 0 J/kg 4.9 K 0 % 0 % 0 % 0 m²/s² 0 0 5.29 73
06:00 0 J/kg 4.4 K 0 % 0 % 0 % 0 m²/s² 0 0 4.79 73
07:00 0 J/kg 3.8 K 0 % 0 % 0 % 0 m²/s² 0 0 4.25 73
08:00 0 J/kg 3.6 K 0 % 0 % 0 % 0 m²/s² 0 0 4.05 73
09:00 1 J/kg 3.7 K 0 % 0 % 0 % 0 m²/s² 0 0 4.39 73
10:00 7 J/kg 4.4 K 0 % 0 % 0 % 0 m²/s² 0 0 4.79 73
11:00 4 J/kg 4.0 K 0 % 0 % 0 % 0 m²/s² 0 0 4.72 73
12:00 4 J/kg 3.7 K 0 % 0 % 0 % 0 m²/s² 0 0 4.51 73
13:00 4 J/kg 3.8 K 0 % 0 % 0 % 0 m²/s² 0 0 4.61 71
14:00 0 J/kg 4.4 K 0 % 0 % 0 % 0 m²/s² 0 0 5.51
15:00 0 J/kg 5.2 K 0 % 0 % 0 % 0 m²/s² 0 0 7.12
Temp Baro Wind Neerslag
  EWN Forecast EWN WRFDA DWD ICON FMI HIRLAM MET Norway GFS
 07:48     18:09    Daglengte: 10:21 Vandaag
17:00 10.4° 1019.6 hPa 0.6 m/s 0.7 mm 13.4° 1017.3 hPa 2.3 m/s 1.8 mm 8.6° 1019.2 hPa 0.4 m/s -0.4 mm 11.0° 1020.0 hPa 0.4 m/s 0.0 mm 11.0° 1020.0 hPa 0.6 m/s 13.2° 1016.8 hPa 0.6 m/s
20:00 8.1° 1019.8 hPa 0.5 m/s 0.0 mm 11.8° 1017.5 hPa 0.4 m/s 11.9 mm 6.1° 1019.8 hPa 0.4 m/s 0.0 mm 8.0° 1021.3 hPa 0.2 m/s 0.0 mm 10.2° 1019.9 hPa 0.5 m/s 9.3° 1018.2 hPa 0.6 m/s
23:00 5.5° 1019.7 hPa 0.8 m/s 0.0 mm 9.3° 1016.3 hPa 1.0 m/s 17.2 mm 5.0° 1019.8 hPa 0.6 m/s 0.0 mm 6.0° 1022.2 hPa 0.5 m/s 0.0 mm 5.6° 1019.7 hPa 0.8 m/s 8.0° 1018.3 hPa 1.1 m/s
 07:50     18:08    Daglengte: 10:18 Morgen
02:00 4.5° 1018.8 hPa 1.0 m/s 0.0 mm 9.8° 1014.5 hPa 2.9 m/s 17.3 mm 4.4° 1018.5 hPa 0.4 m/s 0.0 mm 5.1° 1021.5 hPa 1.0 m/s 0.0 mm 4.2° 1019.4 hPa 0.6 m/s 7.5° 1017.7 hPa 1.3 m/s
04:00 4.4° 1016.7 hPa 0.6 m/s 0.0 mm 10.6° 1012.7 hPa 3.0 m/s 17.3 mm 4.4° 1016.5 hPa 0.3 m/s 0.0 mm 4.9° 1020.3 hPa 0.3 m/s 0.0 mm 3.9° 1017.1 hPa 0.5 m/s 7.5° 1016.0 hPa 2.2 m/s
07:00 4.0° 1016.7 hPa 0.9 m/s 0.0 mm 11.9° 1012.4 hPa 3.3 m/s 17.3 mm 2.3° 1017.8 hPa 0.5 m/s 0.0 mm 3.6° 1020.3 hPa 0.1 m/s 0.0 mm 4.6° 1016.8 hPa 0.8 m/s 7.3° 1015.8 hPa 2.1 m/s
10:00 10.5° 1014.7 hPa 0.7 m/s 0.0 mm 15.0° 1011.5 hPa 2.7 m/s 17.3 mm 9.6° 1014.4 hPa 0.5 m/s 0.0 mm 12.6° 1015.4 hPa 0.4 m/s 0.0 mm 10.3° 1015.5 hPa 0.5 m/s 14.4° 1013.7 hPa 1.6 m/s
13:00 15.9° 1010.9 hPa 1.4 m/s 0.0 mm 17.1° 1009.6 hPa 4.8 m/s 17.3 mm 14.1° 1010.9 hPa 1.3 m/s 0.0 mm 18.2° 1011.6 hPa 0.9 m/s 0.0 mm 16.4° 1010.8 hPa 1.5 m/s 17.8° 1011.5 hPa 1.6 m/s
16:00 14.3° 1009.0 hPa 1.3 m/s 0.0 mm 15.2° 1007.6 hPa 3.7 m/s 17.3 mm 12.5° 1009.1 hPa 1.4 m/s 0.0 mm 17.2° 1010.9 hPa 1.5 m/s 0.0 mm 14.6° 1008.6 hPa 1.1 m/s 14.6° 1009.3 hPa 2.0 m/s
19:00 10.2° 1009.9 hPa 1.6 m/s 0.0 mm 11.6° 1006.2 hPa 5.2 m/s 17.3 mm 9.0° 1010.1 hPa 1.3 m/s 0.0 mm 12.0° 1013.6 hPa 1.5 m/s 0.0 mm 10.6° 1010.0 hPa 1.4 m/s 9.2° 1010.6 hPa 2.5 m/s
22:00 9.6° 1009.6 hPa 1.3 m/s 0.0 mm 10.8° 1006.2 hPa 4.3 m/s 17.3 mm 8.2° 1008.9 hPa 1.5 m/s 0.0 mm 11.1° 1012.5 hPa 1.7 m/s 0.0 mm 10.0° 1010.5 hPa 0.8 m/s 8.6° 1009.9 hPa 2.7 m/s
 07:51     18:06    Daglengte: 10:15 Maandag 26 Okt
01:00 9.3° 1007.9 hPa 1.7 m/s 0.0 mm 11.9° 1004.7 hPa 5.6 m/s 17.3 mm 8.8° 1006.9 hPa 1.7 m/s 0.0 mm 11.7° 1011.3 hPa 2.6 m/s 0.0 mm 9.5° 1008.6 hPa 1.1 m/s 8.3° 1009.3 hPa 2.3 m/s
04:00 9.5° 1005.8 hPa 1.8 m/s 0.0 mm 11.5° 1002.1 hPa 4.4 m/s 17.3 mm 8.8° 1004.6 hPa 2.1 m/s 0.0 mm 11.9° 1008.8 hPa 2.9 m/s 0.0 mm 9.7° 1006.5 hPa 1.2 m/s 7.9° 1008.7 hPa 2.0 m/s
07:00 8.9° 1004.5 hPa 1.9 m/s 0.0 mm 11.9° 1003.0 hPa 2.7 m/s 17.3 mm 8.0° 1003.9 hPa 2.1 m/s 0.0 mm 11.8° 1007.6 hPa 3.2 m/s 0.0 mm 8.8° 1004.9 hPa 1.0 m/s 8.1° 1008.3 hPa 1.5 m/s
10:00 11.5° 1004.4 hPa 1.1 m/s 0.0 mm 9.3° 1005.1 hPa 3.9 m/s 17.3 mm 11.7° 1004.0 hPa 1.1 m/s 0.0 mm 13.0° 1004.6 hPa 0.0 m/s 14.2° 1008.1 hPa 1.0 m/s
13:00 10.0° 1004.0 hPa 2.0 m/s 2.0 mm 5.8° 1005.6 hPa 3.3 m/s 20.5 mm 9.9° 1005.1 hPa 2.4 m/s 0.2 mm 12.3° 1004.1 hPa 1.7 m/s 13.6° 1007.6 hPa 0.8 m/s
16:00 6.3° 1007.3 hPa 1.9 m/s 10.1 mm 5.2° 1004.6 hPa 2.3 m/s 50.5 mm 5.7° 1008.3 hPa 1.7 m/s 2.4 mm 7.0° 1008.6 hPa 1.7 m/s 10.0° 1007.3 hPa 1.3 m/s
19:00 4.8° 1009.2 hPa 0.7 m/s 18.4 mm 4.9° 1005.3 hPa 0.3 m/s 101.2 mm 3.7° 1011.5 hPa 0.8 m/s 5.3 mm 5.1° 1010.2 hPa 0.6 m/s 7.4° 1008.6 hPa 2.3 m/s
22:00 3.8° 1010.6 hPa 0.8 m/s 25.5 mm 4.8° 1006.2 hPa 3.3 m/s 136.3 mm 0.1° 1014.6 hPa 0.6 m/s 8.3 mm 4.5° 1010.8 hPa 0.4 m/s 5.7° 1009.0 hPa 0.6 m/s
 07:53     18:04    Daglengte: 10:11 Dinsdag 27 Okt
01:00 3.1° 1011.4 hPa 0.8 m/s 28.2 mm 4.7° 1007.6 hPa 3.9 m/s 156.4 mm 0.1° 1014.3 hPa 0.8 m/s 5.4 mm 3.8° 1011.5 hPa 0.5 m/s 5.6° 1009.8 hPa 0.8 m/s
04:00 3.0° 1011.0 hPa 0.8 m/s 30.1 mm 4.8° 1008.6 hPa 2.4 m/s 168.6 mm -0.1° 1013.7 hPa 0.4 m/s 8.4 mm 3.6° 1010.8 hPa 0.6 m/s 5.5° 1009.7 hPa 1.3 m/s
07:00 3.0° 1011.8 hPa 1.0 m/s 36.2 mm 5.2° 1010.2 hPa 2.6 m/s 172.2 mm -0.0° 1014.9 hPa 0.4 m/s 7.6 mm 3.7° 1011.3 hPa 0.7 m/s 5.4° 1010.7 hPa 1.0 m/s
10:00 4.3° 1012.9 hPa 0.8 m/s 60.9 mm 6.0° 1012.3 hPa 2.3 m/s 174.2 mm 0.1° 1016.2 hPa 0.5 m/s 4.2 mm 4.8° 1012.2 hPa 0.7 m/s 6.0° 1011.9 hPa 0.8 m/s
13:00 5.3° 1013.7 hPa 0.7 m/s 59.7 mm 6.8° 1012.8 hPa 1.7 m/s 174.5 mm 0.8° 1017.0 hPa 0.3 m/s 2.2 mm 6.0° 1013.2 hPa 0.7 m/s 6.4° 1012.5 hPa 0.5 m/s
16:00 4.6° 1013.9 hPa 0.7 m/s 174.5 mm 3.4° 1013.4 hPa 0.6 m/s 174.5 mm 4.8° 1014.0 hPa 0.7 m/s 6.4° 1013.1 hPa 0.5 m/s
19:00 3.2° 1014.6 hPa 1.0 m/s 174.5 mm 0.4° 1013.7 hPa 2.6 m/s 174.5 mm 3.7° 1014.8 hPa 0.7 m/s 2.7° 1015.6 hPa 1.2 m/s
22:00 1.0° 1015.9 hPa 0.7 m/s 58.6 mm 0.9° 1015.8 hPa 0.6 m/s 1.9° 1016.8 hPa 1.6 m/s 58.6 mm
 07:54     18:03    Daglengte: 10:09 Woensdag 28 Okt
01:00 -0.3° 1016.3 hPa 0.7 m/s 58.6 mm -0.5° 1016.3 hPa 0.6 m/s 2.2° 1016.6 hPa 2.0 m/s 58.6 mm
04:00 -1.8° 1017.6 hPa 0.8 m/s 58.6 mm -2.1° 1017.7 hPa 0.6 m/s 2.6° 1016.5 hPa 2.1 m/s 58.6 mm
07:00 -3.2° 1018.9 hPa 0.8 m/s 58.6 mm -3.8° 1019.1 hPa 0.7 m/s 3.6° 1017.2 hPa 1.8 m/s 58.6 mm
10:00 2.8° 1019.7 hPa 0.5 m/s 58.6 mm 2.2° 1020.0 hPa 0.5 m/s 9.2° 1016.0 hPa 0.9 m/s 58.6 mm
13:00 8.5° 1020.4 hPa 0.3 m/s 58.6 mm 8.2° 1020.9 hPa 0.3 m/s 11.6° 1014.9 hPa 0.8 m/s 58.6 mm
16:00 6.6° 1020.9 hPa 0.6 m/s 58.6 mm 6.3° 1021.5 hPa 0.6 m/s 9.1° 1015.1 hPa 1.4 m/s 58.6 mm
19:00 4.5° 1021.7 hPa 0.9 m/s 58.6 mm 4.5° 1022.0 hPa 0.8 m/s 4.9° 1017.9 hPa 1.8 m/s 58.6 mm
22:00 2.8° 1022.9 hPa 0.8 m/s 58.6 mm 2.8° 1023.2 hPa 0.8 m/s 3.5° 1019.3 hPa 1.4 m/s 58.6 mm
 07:56     18:01    Daglengte: 10:05 Donderdag 29 Okt
01:00 1.2° 1024.1 hPa 0.8 m/s 58.6 mm 1.0° 1024.5 hPa 0.7 m/s 4.0° 1019.5 hPa 1.3 m/s 58.6 mm
04:00 1.4° 1024.5 hPa 0.8 m/s 58.6 mm 1.2° 1025.0 hPa 0.8 m/s 3.3° 1019.7 hPa 1.3 m/s 58.6 mm
07:00 1.7° 1025.0 hPa 0.9 m/s 58.6 mm 1.5° 1025.4 hPa 0.9 m/s 4.0° 1020.9 hPa 1.2 m/s 58.6 mm
10:00 5.2° 1025.4 hPa 0.6 m/s 58.6 mm 5.0° 1025.8 hPa 0.7 m/s 8.2° 1021.5 hPa 0.6 m/s 58.6 mm
13:00 8.6° 1025.7 hPa 0.4 m/s 58.6 mm 8.4° 1026.1 hPa 0.4 m/s 11.1° 1020.9 hPa 0.2 m/s 58.6 mm
16:00 7.8° 1026.3 hPa 0.7 m/s 58.6 mm 7.7° 1026.8 hPa 0.7 m/s 9.4° 1021.6 hPa 0.5 m/s 58.6 mm
19:00 6.9° 1027.2 hPa 1.0 m/s 58.6 mm 7.0° 1027.4 hPa 1.0 m/s 6.1° 1024.6 hPa 1.3 m/s 58.6 mm
22:00 6.8° 1027.3 hPa 0.8 m/s 58.6 mm 7.0° 1027.5 hPa 0.8 m/s 5.6° 1026.2 hPa 1.5 m/s 58.6 mm
 07:57     18:00    Daglengte: 10:03 Vrijdag 30 Okt
01:00 6.8° 1027.4 hPa 0.6 m/s 58.6 mm 6.9° 1027.5 hPa 0.5 m/s 5.8° 1026.1 hPa 1.6 m/s 58.6 mm
04:00 7.0° 1026.4 hPa 0.6 m/s 58.6 mm 7.1° 1026.4 hPa 0.6 m/s 5.9° 1026.2 hPa 1.7 m/s 58.6 mm
07:00 7.2° 1025.4 hPa 0.7 m/s 58.6 mm 7.3° 1025.3 hPa 0.6 m/s 6.4° 1025.9 hPa 1.7 m/s 58.6 mm
10:00 10.0° 1024.5 hPa 0.7 m/s 58.6 mm 9.9° 1024.5 hPa 0.6 m/s 11.2° 1024.9 hPa 1.6 m/s 58.6 mm
13:00 12.6° 1023.6 hPa 0.7 m/s 58.6 mm 12.5° 1023.6 hPa 0.6 m/s 13.8° 1023.7 hPa 1.7 m/s 58.6 mm
16:00 9.8° 1024.0 hPa 0.8 m/s 58.6 mm 9.6° 1024.0 hPa 0.7 m/s 11.6° 1023.4 hPa 1.9 m/s 58.6 mm
19:00 6.8° 1024.5 hPa 0.9 m/s 58.6 mm 6.7° 1024.5 hPa 0.8 m/s 7.7° 1024.4 hPa 2.1 m/s 58.6 mm
22:00 5.4° 1026.0 hPa 0.9 m/s 58.6 mm 5.2° 1026.1 hPa 0.8 m/s 7.2° 1024.4 hPa 2.1 m/s 58.6 mm
 07:59     17:58    Daglengte: 9:59 Zaterdag 31 Okt
01:00 4.0° 1027.3 hPa 0.9 m/s 58.6 mm 3.7° 1027.7 hPa 0.8 m/s 7.0° 1023.3 hPa 2.4 m/s 58.6 mm
04:00 3.0° 1027.7 hPa 0.9 m/s 58.6 mm 2.6° 1028.2 hPa 0.8 m/s 6.9° 1022.4 hPa 2.6 m/s 58.6 mm
07:00 2.0° 1028.1 hPa 1.0 m/s 58.6 mm 1.5° 1028.6 hPa 0.8 m/s 7.0° 1022.1 hPa 2.7 m/s 58.6 mm
10:00 8.1° 1026.7 hPa 0.6 m/s 58.6 mm 7.7° 1027.2 hPa 0.5 m/s 13.1° 1020.9 hPa 2.0 m/s 58.6 mm
13:00 14.0° 1025.4 hPa 0.2 m/s 58.6 mm 13.8° 1025.9 hPa 0.2 m/s 15.8° 1019.9 hPa 0.6 m/s 58.6 mm
19:00 6.6° 1025.1 hPa 0.8 m/s 58.6 mm 6.5° 1025.5 hPa 0.7 m/s 7.8° 1020.8 hPa 1.7 m/s 58.6 mm
 08:00     17:56    Daglengte: 9:56 Zondag 01 Nov
01:00 2.6° 1026.3 hPa 0.7 m/s 58.6 mm 2.3° 1026.7 hPa 0.6 m/s 6.3° 1021.4 hPa 1.7 m/s 58.6 mm
07:00 0.8° 1027.0 hPa 0.8 m/s 58.6 mm 0.3° 1027.4 hPa 0.8 m/s 6.7° 1022.2 hPa 1.0 m/s 58.6 mm
13:00 15.0° 1024.2 hPa 0.5 m/s 58.6 mm 15.0° 1024.6 hPa 0.5 m/s 15.0° 1019.6 hPa 0.9 m/s 58.6 mm
19:00 7.7° 1023.6 hPa 0.9 m/s 58.6 mm 7.7° 1023.9 hPa 0.8 m/s 8.0° 1020.6 hPa 1.9 m/s 58.6 mm
 08:02     17:55    Daglengte: 9:53 Maandag 02 Nov
01:00 7.0° 1024.2 hPa 0.6 m/s 58.6 mm 7.0° 1024.6 hPa 0.5 m/s 7.0° 1020.1 hPa 2.2 m/s 58.6 mm
07:00 4.5° 1025.6 hPa 0.6 m/s 58.6 mm 4.2° 1026.2 hPa 0.5 m/s 7.4° 1018.7 hPa 2.1 m/s 58.6 mm
13:00 16.3° 1024.6 hPa 0.2 m/s 58.6 mm 16.1° 1025.3 hPa 0.1 m/s 18.7° 1016.5 hPa 0.9 m/s 58.6 mm
19:00 8.0° 1024.8 hPa 0.9 m/s 58.6 mm 7.9° 1025.4 hPa 0.8 m/s 9.3° 1017.7 hPa 1.5 m/s 58.6 mm
 08:03     17:53    Daglengte: 9:50 Dinsdag 03 Nov
01:00 8.6° 1025.8 hPa 1.7 m/s 0.1 mm
07:00 8.2° 1025.4 hPa 1.4 m/s 0.3 mm
13:00 16.0° 1023.2 hPa 0.4 m/s 0.6 mm
19:00 9.4° 1025.0 hPa 0.5 m/s 0.7 mm
 08:05     17:52    Daglengte: 9:47 Woensdag 04 Nov
01:00 8.3° 1025.6 hPa 0.7 m/s 0.6 mm
07:00 7.7° 1025.1 hPa 0.5 m/s 0.5 mm
13:00 12.5° 1023.3 hPa 1.3 m/s 1.5 mm
19:00 7.8° 1024.4 hPa 0.6 m/s 1.4 mm
 08:06     17:51    Daglengte: 9:45 Donderdag 05 Nov
01:00 6.7° 1024.7 hPa 0.4 m/s 0.7 mm
07:00 5.9° 1024.3 hPa 0.5 m/s 0.0 mm
13:00 10.2° 1022.5 hPa 1.5 m/s 0.9 mm
19:00 6.0° 1024.2 hPa 0.8 m/s 1.1 mm
 08:08     17:49    Daglengte: 9:41 Vrijdag 06 Nov
01:00 4.9° 1024.7 hPa 0.3 m/s 0.5 mm
07:00 4.4° 1024.2 hPa 0.5 m/s 0.5 mm
13:00 10.5° 1021.8 hPa 0.8 m/s 0.7 mm
19:00 5.9° 1023.9 hPa 0.5 m/s 0.8 mm
 08:09     17:48    Daglengte: 9:39 Zaterdag 07 Nov
01:00 5.2° 1024.8 hPa 0.7 m/s 0.7 mm
07:00 4.5° 1025.2 hPa 0.7 m/s 0.4 mm
13:00 11.2° 1022.7 hPa 1.2 m/s 0.3 mm
19:00 5.9° 1024.7 hPa 0.5 m/s 0.5 mm
 08:11     17:46    Daglengte: 9:35 Zondag 08 Nov
01:00 5.0° 1025.1 hPa 0.8 m/s 0.2 mm
07:00 4.5° 1024.6 hPa 0.6 m/s 0.2 mm
13:00 10.5° 1021.5 hPa 0.7 m/s 0.3 mm
FMI Hirlam - 7.5 km EWN WRFDA - 12 km DWD ICON - 7 km GFS - 25 km Basiskaart






























































Updatetijd (Europe/Amsterdam) Resolutie Lengte Stap
FMI Hirlam 13:45, 19:45, 01:45, 06:45 7.5 km 49h 1h
EWN WRFDA 15:30, 21:30, 02:30, 08:30 12 km 73h 1h
DWD ICON 11:45, 17:45, 23:45, 04:45 7 km 75h 1h
GFS 14:00, 20:00, 02:00, 07:00 25 km 237h 3h
30+ mm
25-30 mm
20-25 mm
15-20 mm
10-15 mm
6-10 mm
4-6 mm
2-4 mm
1-2 mm
0.5-1 mm
0.2-0.5 mm
0.1-0.2 mm
30+ mm
25-30 mm
20-25 mm
15-20 mm
10-15 mm
6-10 mm
4-6 mm
2-4 mm
1-2 mm
0.5-1 mm
0.2-0.5 mm
0.1-0.2 mm
Sneeuwval
Natte sneeuw
Hagel
Vorst
30+ mm
25-30 mm
20-25 mm
15-20 mm
10-15 mm
6-10 mm
4-6 mm
2-4 mm
1-2 mm
0.5-1 mm
0.2-0.5 mm
0.1-0.2 mm
Sneeuwval
Natte sneeuw
Hagel
Vorst
Onweer
50 mm
40 mm
30 mm
26 mm
22 mm
18 mm
14 mm
10 mm
9 mm
8 mm
7 mm
6 mm
5 mm
4.5 mm
4 mm
3.5 mm
3 mm
2.5 mm
2 mm
1.5 mm
1 mm
0.8 mm
0.6 mm
0.4 mm
0.2 mm
0.05 mm
35°
30°
25°
20°
15°
10°
-5°
-10°
-15°
-20°
-25°
-30°
-35°
33> m/s
29 m/s
25 m/s
21 m/s
17 m/s
14 m/s
11 m/s
8 m/s
5 m/s
3 m/s
0 m/s
2600 J/kg
2400 J/kg
2200 J/kg
2000 J/kg
1800 J/kg
1600 J/kg
1400 J/kg
1200 J/kg
1000 J/kg
800 J/kg
600 J/kg
400 J/kg
200 J/kg
70 dBZ
65 dBZ
60 dBZ
55 dBZ
50 dBZ
45 dBZ
40 dBZ
35 dBZ
30 dBZ
25 dBZ
20 dBZ
15 dBZ
10 dBZ
5 dBZ
-1 K
-2 K
-3 K
-4 K
-5 K
-6 K
-7 K
-8 K
-9 K
950 m²/s²
900 m²/s²
850 m²/s²
800 m²/s²
750 m²/s²
700 m²/s²
650 m²/s²
600 m²/s²
550 m²/s²
500 m²/s²
450 m²/s²
400 m²/s²
350 m²/s²
300 m²/s²
250 m²/s²
200 m²/s²
150 m²/s²
100 m²/s²
46 m/s
44 m/s
42 m/s
40 m/s
38 m/s
36 m/s
34 m/s
32 m/s
30 m/s
28 m/s
26 m/s
24 m/s
22 m/s
20 m/s
16 m/s
12 m/s
8 m/s
4 m/s
30 m/s
28 m/s
26 m/s
24 m/s
22 m/s
20 m/s
18 m/s
16 m/s
14 m/s
12 m/s
10 m/s
8 m/s
6 m/s
4 m/s
2 m/s
3.0
2.8
2.6
2.4
2.2
2.0
1.8
1.6
1.4
1.2
1.0
0.8
0.6
0.4
0.2
15
14
13
12
11
10
9
8
7
6
5
4
3
2
1
90%
80%
70%
60%
50%
40%
30%
20%
10%
42
40
38
36
34
32
30
28
26
24
22
20
18
16
14
12
90+ cm
80-90 cm
70-80 cm
60-70 cm
50-60 cm
40-50 cm
30-40 cm
20-30 cm
10-20 cm
1-10 cm
Sneeuwval
Natte sneeuw
Regen
>120 mm
115 mm
110 mm
105 mm
100 mm
95 mm
90 mm
85 mm
80 mm
75 mm
70 mm
65 mm
60 mm
55 mm
50 mm
45 mm
45 mm
40 mm
35 mm
30 mm
25 mm
20 mm
15 mm
10 mm
5 mm
0.1 mm
960 hPa
880 hPa
800 hPa
720 hPa
640 hPa
560 hPa
584 gpdm
568 gpdm
552 gpdm
536 gpdm
520 gpdm
504 gpdm
488 gpdm
Extreem zwaar Noodweer Kans op onweer
15% 15% 5% 50% 15%

Dag




Kaart






35°
30°
25°
20°
15°
10°
-5°
-10°
-15°
-20°
-25°
-30°
-35°
33> m/s
29 m/s
25 m/s
21 m/s
17 m/s
14 m/s
11 m/s
8 m/s
5 m/s
3 m/s
0 m/s
Extreem zwaar Noodweer Kans op onweer
15% 15% 5% 50% 15%
>120 mm
115 mm
110 mm
105 mm
100 mm
95 mm
90 mm
85 mm
80 mm
75 mm
70 mm
65 mm
60 mm
55 mm
50 mm
45 mm
45 mm
40 mm